Weather History for KAST - July, 2013

Change the Weather History Date:

Tuesday, July 23, 2013

  Actual Average Record
Temperature  
Mean Temperature 59 °F 61 °F  
Max Temperature 66 °F 68 °F 96 °F (2004)
Min Temperature 52 °F 54 °F 44 °F (1964)
Degree Days  
Heating Degree Days 6 4  
Month to date heating degree days 96 116  
Since 1 June heating degree days 277 358  
Since 1 July heating degree days 96 116  
Cooling Degree Days 0 0  
Month to date cooling degree days 0 0  
Year to date cooling degree days 4 0  
Since 1 June cooling degree days 3 0  
Growing Degree Days 9 (Base 50)    
Moisture  
Dew Point 54 °F    
Average Humidity 87    
Maximum Humidity 100    
Minimum Humidity 73    
Precipitation  
Precipitation 0.00 in 0.02 in 0.82 in (2014)
Month to date precipitation 0.01 0.83  
Year to date precipitation 34.98 36.74  
Snow  
Snow 0.00 in - - ()
Month to date snowfall 0.0  
Since 1 June snowfall 0.0  
Snow Depth 0.00 in    
Sea Level Pressure  
Sea Level Pressure 30.06 in    
Wind  
Wind Speed 6 mph (WNW)    
Max Wind Speed 20 mph    
Max Gust Speed 26 mph    
Visibility 6 miles    
Events Fog    
T = Trace of Precipitation, MM = Missing Value Source: NWS Daily Summary

Daily Weather History Graph

Daily Weather History Graph

Search for Another Location

Airport or City:

Trip Planner

Search our weather history database for the weather conditions in past years. The results will help you decide how hot, cold, wet, or windy it might be!

Date:

Astronomy

Jul. 23, 2013 Rise Set
Actual Time 5:47 AM PDT 8:55 PM PDT
Civil Twilight 5:11 AM PDT 9:31 PM PDT
Nautical Twilight 4:24 AM PDT 10:17 PM PDT
Astronomical Twilight 3:27 AM PDT 11:14 PM PDT
Moon 9:17 PM PDT (7/23) 7:10 AM PDT (7/23)
Length of Visible Light 16h 20m
Length of Day
15h 08m
Full, 98% of the Moon is Illuminated
Jul 23
Full
Jul 29
Last Quarter
Aug 6
New
Aug 14
First Quarter
Aug 20
Full

Hourly Weather History & Observations

Time (PDT) Temp. Dew Point Humidity Pressure Visibility Wind Dir Wind Speed Gust Speed Precip Events Conditions
12:55 AM 55.0 °F 53.1 °F 93% 30.06 in 7.0 mi NW 10.4 mph - N/A   Overcast
1:55 AM 54.0 °F 53.1 °F 97% 30.06 in 6.0 mi NW 9.2 mph - N/A   Overcast
2:55 AM 54.0 °F 53.1 °F 97% 30.05 in 8.0 mi NW 5.8 mph - N/A   Overcast
3:55 AM 54.0 °F 53.1 °F 97% 30.05 in 4.0 mi WNW 4.6 mph - N/A   Overcast
4:25 AM 53.6 °F 53.6 °F 100% 30.05 in 2.5 mi West 4.6 mph - N/A   Overcast
4:41 AM 53.6 °F 53.6 °F 100% 30.05 in 1.8 mi West 3.5 mph - N/A   Overcast
4:55 AM 53.1 °F 53.1 °F 100% 30.05 in 1.8 mi WSW 3.5 mph - N/A   Overcast
5:03 AM 53.6 °F 53.6 °F 100% 30.05 in 2.0 mi West 4.6 mph - N/A   Overcast
5:10 AM 53.6 °F 53.6 °F 100% 30.05 in 1.5 mi West 3.5 mph - N/A   Overcast
5:26 AM 53.6 °F 53.6 °F 100% 30.05 in 1.0 mi West 4.6 mph - N/A   Overcast
5:38 AM 53.6 °F 53.6 °F 100% 30.05 in 0.8 mi West 5.8 mph - N/A   Mist
5:55 AM 53.1 °F 53.1 °F 100% 30.06 in 0.8 mi West 3.5 mph - N/A   Mist
6:23 AM 53.6 °F 53.6 °F 100% 30.06 in 0.2 mi WNW 5.8 mph - N/A Fog Fog
6:55 AM 53.1 °F 53.1 °F 100% 30.07 in 0.5 mi West 5.8 mph - N/A Fog Fog
7:42 AM 51.8 °F 51.8 °F 100% 30.07 in 1.5 mi WNW 3.5 mph - N/A   Overcast
7:47 AM 51.8 °F 51.8 °F 100% 30.08 in 0.8 mi WNW 3.5 mph - N/A   Overcast
7:55 AM 52.0 °F 52.0 °F 100% 30.08 in 0.8 mi Calm Calm - N/A   Overcast
8:32 AM 53.6 °F 53.6 °F 100% 30.08 in 1.2 mi Calm Calm - N/A   Overcast
8:46 AM 53.6 °F 53.6 °F 100% 30.08 in 1.8 mi Calm Calm - N/A   Overcast
8:55 AM 53.1 °F 53.1 °F 100% 30.08 in 1.8 mi Calm Calm - N/A   Overcast
9:02 AM 53.6 °F 53.6 °F 100% 30.08 in 2.5 mi Variable 3.5 mph - N/A   Overcast
9:12 AM 53.6 °F 53.6 °F 100% 30.08 in 3.0 mi West 4.6 mph - N/A   Overcast
9:20 AM 53.6 °F 53.6 °F 100% 30.08 in 1.8 mi WSW 3.5 mph - N/A   Overcast
9:36 AM 53.6 °F 53.6 °F 100% 30.08 in 2.0 mi WSW 3.5 mph - N/A   Overcast
9:48 AM 55.4 °F 53.6 °F 94% 30.08 in 4.0 mi West 4.6 mph - N/A   Overcast
9:55 AM 55.0 °F 54.0 °F 96% 30.08 in 5.0 mi West 3.5 mph - N/A   Overcast
10:55 AM 57.0 °F 55.0 °F 93% 30.08 in 10.0 mi Calm Calm - N/A   Overcast
11:28 AM 59.0 °F 55.4 °F 88% 30.08 in 10.0 mi WNW 3.5 mph - N/A   Overcast
11:55 AM 61.0 °F 55.9 °F 83% 30.07 in 10.0 mi NNW 5.8 mph - N/A   Overcast
12:55 PM 63.0 °F 57.0 °F 81% 30.06 in 10.0 mi Variable 6.9 mph - N/A   Mostly Cloudy
1:10 PM 62.6 °F 57.2 °F 82% 30.05 in 10.0 mi WNW 6.9 mph - N/A   Scattered Clouds
1:55 PM 66.0 °F 57.0 °F 73% 30.05 in 10.0 mi WNW 8.1 mph - N/A   Clear
2:55 PM 64.9 °F 55.9 °F 73% 30.05 in 10.0 mi WNW 9.2 mph - N/A   Clear
3:55 PM 64.0 °F 55.0 °F 73% 30.04 in 10.0 mi West 10.4 mph - N/A   Clear
4:55 PM 62.1 °F 55.0 °F 78% 30.04 in 10.0 mi West 15.0 mph 21.9 mph N/A   Clear
5:55 PM 61.0 °F 54.0 °F 78% 30.04 in 10.0 mi WNW 13.8 mph 21.9 mph N/A   Clear
6:07 PM 60.8 °F 53.6 °F 77% 30.04 in 10.0 mi WNW 15.0 mph 21.9 mph N/A   Partly Cloudy
6:55 PM 59.0 °F 54.0 °F 83% 30.04 in 10.0 mi WNW 10.4 mph 18.4 mph N/A   Mostly Cloudy
7:55 PM 57.0 °F 54.0 °F 89% 30.05 in 10.0 mi West 8.1 mph - N/A   Overcast
8:55 PM 55.0 °F 53.1 °F 93% 30.06 in 10.0 mi West 8.1 mph - N/A   Overcast
9:55 PM 55.0 °F 53.1 °F 93% 30.07 in 10.0 mi WNW 9.2 mph - N/A   Overcast
10:55 PM 54.0 °F 52.0 °F 93% 30.07 in 10.0 mi Variable 4.6 mph - N/A   Overcast
11:55 PM 54.0 °F 52.0 °F 93% 30.08 in 10.0 mi West 8.1 mph - N/A   Overcast